Preview of NWS' New Version of Forecast
This preview is not operational and should not be used for support decisions.

Regional Weather Roundup (RWR)

Issued by National Weather Service (NWS)

                            
000
ASUS43 KDTX 201610
RWRMI 
MICHIGAN HOURLY REGIONAL WEATHER ROUNDUP
NATIONAL WEATHER SERVICE DETROIT/PONTIAC MI
1100 AM EST WED FEB 20 2019

NOTE: "FAIR" INDICATES FEW OR NO CLOUDS BELOW 12,000 FEET WITH NO
SIGNIFICANT WEATHER AND/OR OBSTRUCTION TO VISIBILITY.

MIZ047>049-052>055-059>063-066>070-074>076-081>083-201700-
SOUTHEAST LOWER MICHIGAN
  
CITY           SKY/WX    TMP DP  RH WIND       PRES   REMARKS
ADRIAN         LGT SNOW  27  24  89 E14       30.05F FOG     WCI  16  
ALMA           CLOUDY    26  15  64 NE15      30.08F WCI  13          
ANN ARBOR      CLOUDY    27  23  85 NE13      30.06F FOG     WCI  16  
BAD AXE        CLOUDY    26  19  72 E8        30.17F WCI  18          
CARO           CLOUDY    28  17  61 E15       30.11F WCI  17          
DETROIT CITY   CLOUDY    28  20  71 E13G23    30.13F WCI  17          
DETROIT        LGT SNOW  27  21  78 E10       30.11F WCI  17          
FLINT          CLOUDY    28  15  58 E18       30.07F WCI  15          
GROSSE ILE     LGT SNOW  28  26  89 E7        30.09F WCI  21          
HILLSDALE      CLOUDY    28  23  81 E17G23    29.99F HAZE    WCI  16  
HOWELL         CLOUDY    30  21  69 E14G20    30.05F WCI  19          

CITY           SKY/WX    TMP DP  RH WIND       PRES   REMARKS
JACKSON        CLOUDY    27  22  81 E16       30.02F WCI  15          
LAMBERTVILLE   LGT SNOW  28  26  91 E8G17     30.06F WCI  20          
LANSING        CLOUDY    27  21  78 E14       30.04F WCI  16          
LAPEER         CLOUDY    28  14  56 E12G22    30.10F WCI  18          
MASON          CLOUDY    29  24  79 E9        30.03F WCI  21          
MONROE         LGT SNOW  28  27  96 E13       30.08F WCI  18          
MT. CLEMENS    CLOUDY    28  22  77 E15       30.12F WCI  16          
PONTIAC        FLURRIES  26  17  68 E12G21    30.07F WCI  16          
PORT HOPE        N/A     26  20  77 E10       30.20F WCI  16          
PORT HURON     CLOUDY    27  18  69 E10G16    30.17F WCI  17          
TRI CITIES     CLOUDY    25  17  72 E14       30.12F WCI  13          
MIDLAND        CLOUDY    26  18  73 E13       30.13F WCI  14          
TROY           CLOUDY    28  18  64 E12G18    30.13F WCI  18          
SAGINAW HB     CLOUDY    28  18  64 E12       30.11F WCI  18          
$$
MIZ043>046-050>051-056>058-064>065-071>073-077>080-201700-
SOUTHWEST LOWER MICHIGAN
  
CITY           SKY/WX    TMP DP  RH WIND       PRES   REMARKS
BATTLE CREEK   CLOUDY    30  22  72 E12G24    29.98F WCI  20          
BENTON HARBOR  CLOUDY    33  26  75 E20G36    29.89F WCI  21          
BIG RAPIDS     CLOUDY    25  17  72 E13G24    30.03F WCI  14          
COLDWATER      CLOUDY    30  27  88 E15G22    29.97F FOG     WCI  19  
FREMONT        CLOUDY    29  14  52 E13G23    29.99F WCI  19          
HOLLAND        CLOUDY    29  20  69 E14       29.96F WCI  18          
GRAND RAPIDS   CLOUDY    26  18  71 E16G29    29.99F WCI  14          
IONIA          CLOUDY    27  15  60 E12G18    30.02F WCI  17          
KALAMAZOO      CLOUDY    32  22  66 E10G21    29.96F WCI  24          
LUDINGTON      CLOUDY    26  18  73 E21G31    29.97F WCI  11          
MOUNT PLEASANT CLOUDY    26  15  61 E14G21    30.08F WCI  15          
MUSKEGON       CLOUDY    29  16  58 E14G30    29.96F WCI  18          
SOUTH HAVEN    CLOUDY    32  24  73 E17G25    29.92F WCI  21          
$$
MIZ016>042-201700-
NORTHERN LOWER MICHIGAN
  
CITY           SKY/WX    TMP DP  RH WIND       PRES   REMARKS
ALPENA         CLOUDY    24  17  74 SE9       30.21F WCI  14          
BEAVER ISLAND  LGT SNOW  22  19  86 E15G21    30.13F WCI   9          
BELLAIRE       LGT SNOW  23  17  79 E8        30.13F WCI  14          
CADILLAC       CLOUDY    20  16  82 E13       30.04F FOG     WCI   8  
CHARLEVOIX     LGT SNOW  21  19  89 E16       30.15F VSB 1   WCI   7  
FRANKFORT      MIX PCPN  24  20  83 E8        30.07F WCI  15          
GAYLORD        SNOW      18  14  84 SE14      30.10F VSB 1/2 WCI   4  
GRAYLING       FLURRIES  19  16  86 E13       30.10  WCI   7          
HARBOR SPRINGS LGT SNOW  19  16  89 E13       30.15F VSB 1   WCI   5  
HOUGHTON LAKE  LGT SNOW  20  16  84 E12       30.11F FOG     WCI   8  
MANISTEE       FLURRIES  24  19  81 E17G28    30.01F WCI  11          
OSCODA         SNOW      23  19  85 E6        30.20F VSB 1/2 WCI  16  
PELLSTON       SNOW      19  15  84 SE8       30.18F VSB 1/2 WCI   9  
ROGERS CITY    LGT SNOW  20  15  79 SE3       30.22F                  
TRAVERSE CITY  LGT SNOW  24  17  74 SE9       30.10F WCI  14          
$$
MIZ007>008-015-201700-
EASTERN UPPER MICHIGAN
  
CITY           SKY/WX    TMP DP  RH WIND       PRES   REMARKS
KINROSS        CLOUDY    18  14  84 E9        30.20F WCI   7          
MACKINAC ISLAN LGT SNOW  23  14  68 SE13G21   30.17F WCI  12          
NEWBERRY       LGT SNOW  19  17  92 MISG      30.13F                  
S. S. MARIE    CLOUDY    18  16  92 E7        30.21F WCI   9          
MUNISING         N/A     22  17  81 S8G18     30.10F WCI  12          
$$
MIZ004>006-011>014-085-201700-
CENTRAL UPPER MICHIGAN
  
CITY           SKY/WX    TMP DP  RH WIND       PRES   REMARKS
MANISTIQUE     FLURRIES  25  18  75 E12G17    30.12F WCI  14          
ESCANABA       LGT SNOW  20  17  88 E5        30.07F VSB 3/4 WCI  13  
MENOMINEE      LGT SNOW  25  22  88 E13       30.04F FOG     WCI  14  
SAWYER-GWINN   LGT SNOW  21  18  86 SE9       30.04F WCI  11          
$$
MIZ001>003-009>011-084-201700-
WESTERN UPPER MICHIGAN
  
CITY           SKY/WX    TMP DP  RH WIND       PRES   REMARKS
IRON MOUNTAIN  LGT SNOW  21  18  88 SE9       29.99F VSB 3/4 WCI  11  
HOUGHTON       FAIR      20   8  60 E9        30.03F WCI   9          
COPPER HARBOR    N/A     24  15  68 S8        30.08F WCI  15          
IRONWOOD       CLOUDY    21  14  74 SE8       29.95F WCI  11          
$$

ABBREVIATIONS USED IN REMARKS
   TC - TEMPERATURE IN CELSIUS
  WCI - WIND CHILL INDEX
   HX - HEAT INDEX
  VSB - VISIBILITY